STARLINK-5721, 55617

Orbit data source: Space-Track

STARLINK-5721, 55617 is a payload satellite owned by SpaceX/Seattle (US) in LEO that was launched on Sun, 12 Feb 2023 UTC via an FALCON 9 launch vehicle from the Air Force Eastern Test Range (AFETR). Payload-class satellites include a variety of spacecraft equipped with specific instruments for various scientific and technological missions. These include communications satellites like Starlink; space stations such as the ISS; scientific satellites like the Hubble; Earth observation satellites from companies like Planet Labs, Umbra, and HawkEye 360; GPS; miniature CubeSats for education and research; and military/defense satellites.

Loading next visibility...
Identifier
55617, 2023-020BA
Orbit
LEO
Country
Flag of USUS
Related business
Manufacturer
SpaceX/Seattle
Mission
Operational Commercial Communications
Bus & Motor
STARLINK, Unknown motor
Mass
305 kg wet, ~290 kg dry
Launch date (UTC)
2023-02-12 (3 years ago)
Launch vehicle
FALCON 9
Launch site
Air Force Eastern Test Range (AFETR)
Object type
Payload
Rocket body
Debris
Shape & HBR
Box + 1 Pan, 10.1 m
Radar Cross Section
13.562 m², Large (>1 m²)

Expand to show TLE details & history
Last TLE update: 18 hours ago

TLE from 18 hours ago
0 STARLINK-5721
1 55617U 23020BA  25340.51061327  .00000440  00000-0  47639-4 0  9991
2 55617  43.0028 137.8959 0001240 265.1483  94.9218 15.02533983155059
Epoch: 2025-12-06T12:15Z
TLE epoch observation values (Epoch: 2025-12-06T12:15:16.986Z)
Latitude
-0°
Longitude
-121.46219°
Altitude
558.938 km
Speed
7.584 km/s
True Right ascension
09h 11m 35s
True Declination
0° 00' 00"
Sunlit
Object was in partial shadow at epoch
Visualization orbit readout
Latitude
Unknown
Longitude
Unknown
Altitude
Unknown
Speed
Unknown
Apparent Right ascension
Unknown
Apparent Declination
Unknown
Sunlit
N/A
Visualization observer readout
Local Sidereal Time
04:18:27
Azimuth
Unknown
Elevation
Unknown
Doppler factor
Unknown
Orbital elements
Apogee altitude
561.87 km
Perigee altitude
560.149 km
Semi-major axis
6,939.146 km
Eccentricity
0.00012
Inclination
43.0028°
RAAN
137.8959°
Arg. of periapsis
265.1483°
True anomaly
94.93596°
Mean anomaly
94.9218°
Eccentric anomaly
94.92888°
Mean motion
3.75478 °/min
Orbital period
95.88 mins
BSTAR
0.000047639
Loading maneuver chart data...
Computing Atmospheric mass density...
Loading historical data...
Loading historical data...
Loading historical data...
Loading historical data...
Loading historical data...
Loading historical data...
Loading historical data...

Documentation

Showing up to 5 results
|